Regional Weather Roundup
Issued by NWS

Home | Current Version | Previous Version | Graphics & Text | Print | Product List | Glossary On
Versions: 1 2 3 4 5 6 7 8 9 10 11 12 13 14 15 16 17 18 19 20 21 22 23 24 25 26 27 28 29 30 31 32 33 34 35 36 37 38 39 40 41 42 43 44 45 46 47 48 49 50
763
ASUS43 KOAX 090102
RWRNE

WEATHER ROUNDUP FOR NEBRASKA
NATIONAL WEATHER SERVICE OMAHA NE
700 PM CST THU DEC 08 2016

NOTES: SATELLITE DATA IS BEING USED TO AUGMENT CLOUD COVER ABOVE
       12000 FEET.
       "FAIR" INDICATES FEW OR NO CLOUDS BELOW 12,000 FEET WITH NO
       SIGNIFICANT WEATHER AND/OR OBSTRUCTIONS TO VISIBILITY.

  * THESE STATIONS DO NOT REPORT WEATHER SUCH AS RAIN...SNOW OR FOG.

NEZ001>004-019>022-054>056-090200-
NEBRASKA PANHANDLE

CITY           SKY/WX    TMP DP  RH WIND       PRES   REMARKS
SCOTTSBLUFF    CLOUDY     7  -2  66 E8        30.37F WCI  -6
ALLIANCE       CLOUDY     1  -5  75 SE9       30.38F WCI -14
CHADRON        CLOUDY     4  -5  66 NE6       30.44F WCI  -7
KIMBALL        CLOUDY     3  -1  84 S9        30.30F WCI -12
SIDNEY         CLOUDY     0  -5  79 SE9       30.37F WCI -15
$$

NEZ057>060-069>072-079>082-090200-
SOUTHWEST NEBRASKA

CITY           SKY/WX    TMP DP  RH WIND       PRES   REMARKS
NORTH PLATTE   CLEAR      9  -1  64 CALM      30.54S
IMPERIAL       CLOUDY     7  -2  66 SE3       30.51S
LEXINGTON      CLEAR     12   0  59 CALM      30.57R
MCCOOK         CLOUDY    10   2  69 SW8       30.58R WCI  -2
OGALLALA       CLEAR      6  -2  72 CALM      30.49F
$$

NEZ005>010-023>029-035>040-094-090200-
NORTH CENTRAL NEBRASKA

CITY           SKY/WX    TMP DP  RH WIND       PRES   REMARKS
VALENTINE      CLEAR      4  -5  66 NW6       30.56S WCI  -7
AINSWORTH      CLEAR      5  -3  70 CALM      30.56S
BROKEN BOW     CLEAR      6  -2  69 NW7       30.55S WCI  -6
O`NEILL        CLEAR      8   1  73 N5        30.59S WCI  -1
ORD            CLEAR      8  -2  63 NW5       30.58S WCI   0
THEDFORD       CLEAR      8  -4  58 CALM      30.53S
$$

NEZ041-046>049-061>064-073>077-083>087-090200-
SOUTH CENTRAL NEBRASKA

CITY           SKY/WX    TMP DP  RH WIND       PRES   REMARKS
GRAND ISLAND   CLEAR     12   3  67 NW5       30.60F WCI   4
AURORA         CLEAR     11   1  64 NW3       30.60S
HASTINGS       CLEAR     15   3  59 CALM      30.61R
HEBRON         CLEAR     16   7  66 CALM      30.64R
HOLDREGE       CLEAR     14   3  62 W3        30.58R
KEARNEY *      CLEAR     16   0  48 CALM      30.59R
YORK           CLEAR     14   5  67 N3        30.62R
$$

NEZ011>018-030>034-042>045-090200-
NORTHEAST NEBRASKA

CITY           SKY/WX    TMP DP  RH WIND       PRES   REMARKS
NORFOLK        CLEAR     12   2  64 W6        30.61S WCI   3
ALBION         CLEAR     12   2  65 NW3       30.61R
BLAIR          CLEAR     17   9  70 NW5       30.61S WCI  10
FREMONT        CLEAR     13   7  77 NW6       30.63S WCI   3
TEKAMAH        CLEAR     18   7  62 NW14      30.63S WCI   4
WAYNE          CLEAR     11   4  75 NW7       30.62S WCI   0
$$

NEZ050>053-065>068-078-088>093-090200-
SOUTHEAST NEBRASKA

CITY           SKY/WX    TMP DP  RH WIND       PRES   REMARKS
LINCOLN        CLEAR     13   6  74 CALM      30.65S
OMAHA EPPLEY   CLEAR     17   7  64 NW8       30.64R WCI   7
BEATRICE       CLEAR     15   7  70 NW7       30.63S WCI   6
FALLS CITY     CLEAR     18   9  68 W9        30.63S WCI   7
NEBRASKA CITY  CLEAR     17   6  60 NW6       30.63R WCI   9
PLATTSMOUTH    CLEAR     16   5  61 NW6       30.62S WCI   8
$$

NEZ044-045-051>053-067-090200-
OMAHA AREA

CITY           SKY/WX    TMP DP  RH WIND       PRES   REMARKS
OMAHA EPPLEY   CLEAR     17   7  64 NW8       30.64R WCI   7
BLAIR          CLEAR     17   9  70 NW5       30.61S WCI  10
FREMONT        CLEAR     13   7  77 NW6       30.63S WCI   3
MILLARD        CLEAR     22  10  57 NW5       30.63S WCI  16
OFFUTT AFB     CLEAR     17   7  65 NW6       30.63R WCI   9
PLATTSMOUTH    CLEAR     16   5  61 NW6       30.62S WCI   8
WAHOO          FAIR      17   8  67 NW7       30.63S WCI   7
$$




USA.gov is the U.S. government's official web portal to all federal, state and local government web resources and services.